Terminal Aerodrome Forecast
Issued by NWS Los Angeles, CA

Home | Current Version | Previous Version | Text Only | Print | Product List | Glossary On
Versions: 1 2 3 4 5 6 7 8 9 10 11 12 13 14 15 16 17 18 19 20 21 22 23 24 25
892
FTUS46 KLOX 242323
TAFSMX
TAF
KSMX 242323Z 2500/2524 32012KT P6SM BKN090
     FM250300 16008KT P6SM -SHRA SCT025 OVC070
     FM250700 VRB03KT P6SM -RA BKN015 OVC025
     FM251200 VRB03KT P6SM -SHRA SCT015 OVC025
     FM251600 VRB03KT P6SM VCSH BKN025
     FM251800 31005KT P6SM BKN025 BKN040
     FM252100 32016G26KT P6SM BKN030 BKN050=

USA.gov is the U.S. government's official web portal to all federal, state and local government web resources and services.